Location: Peebles
(55.6412°N, 3.1714°W)
Time: 10:14:16
(UTC+01:00)

Cosmos 1656 Rocket - Pass Details

Date: 26 September 2021
Orbit: 797 x 845 km, 71.1° (Epoch: 21 October)

Event Time Altitude Azimuth Distance (km) Brightness Sun altitude
Rises 20:29:00 0° 192° (SSW) 3,355 6.8 -13.1°
Reaches altitude 10° 20:31:30 10° 186° (S) 2,418 6.0 -13.5°
Maximum altitude 20:36:47 49° 114° (ESE) 1,052 3.8 -14.2°
Drops below altitude 10° 20:42:03 10° 41° (NE) 2,403 5.9 -14.9°
Sets 20:44:31 0° 36° (NE) 3,332 6.6 -15.2°
